When you browse on this site, cookies collect data to enhance your experience and personalize the content and advertising you see.
Visit our Privacy Policy to learn more. By continuing to use the site, you agree to this use of cookies and data.
  • en France
  • Liste des pays
  • À 7 jours
  • Température de l'eau
  • Carte météo
  • Widgets météo
  • user-avatar
    Se connecter

    Météo par heure à Tonton

    Ce jour, 18 Janvier, Samedi

    Heure Température Précipitation Vent Pression Humidité
    00:00 +2°C° 0 mm 3 m/s 764 mmHg 89%
    01:00 +2°C° 0 mm 3 m/s 765 mmHg 90%
    02:00 +3°C° 0 mm 2 m/s 765 mmHg 91%
    03:00 +3°C° 0 mm 2 m/s 765 mmHg 92%
    04:00 +2°C° 0 mm 2 m/s 766 mmHg 91%
    05:00 +3°C° 0 mm 1 m/s 766 mmHg 90%
    06:00 +3°C° 0 mm 1 m/s 766 mmHg 89%
    07:00 +3°C° 0 mm 1 m/s 767 mmHg 88%
    08:00 +3°C° 0 mm 1 m/s 767 mmHg 87%
    09:00 +2°C° 0 mm 0 m/s 768 mmHg 86%
    10:00 +5°C° 0 mm 1 m/s 768 mmHg 82%
    11:00 +6°C° 0 mm 1 m/s 769 mmHg 78%
    12:00 +7°C° 0 mm 1 m/s 769 mmHg 74%
    13:00 +6°C° 0 mm 2 m/s 770 mmHg 76%
    14:00 +6°C° 0 mm 2 m/s 770 mmHg 78%
    15:00 +6°C° 0 mm 2 m/s 770 mmHg 80%
    16:00 +5°C° 0 mm 2 m/s 771 mmHg 82%
    17:00 +4°C° 0 mm 2 m/s 772 mmHg 84%
    18:00 +2°C° 0 mm 2 m/s 773 mmHg 86%
    19:00 +2°C° 0 mm 2 m/s 773 mmHg 86%
    20:00 +2°C° 0 mm 2 m/s 774 mmHg 86%
    21:00 +2°C° 0 mm 2 m/s 774 mmHg 86%
    22:00 +2°C° 0 mm 2 m/s 775 mmHg 86%
    23:00 +2°C° 0 mm 2 m/s 776 mmHg 86%

    Demain, 19 Janvier, Dimanche

    Heure Température Précipitation Vent Pression Humidité
    00:00 +2°C° 0 mm 2 m/s 777 mmHg 87%
    01:00 +1°C° 0 mm 2 m/s 777 mmHg 87%
    02:00 +1°C° 0 mm 2 m/s 777 mmHg 87%
    03:00 +1°C° 0 mm 2 m/s 777 mmHg 87%
    04:00 +1°C° 0 mm 2 m/s 778 mmHg 87%
    05:00 +1°C° 0 mm 2 m/s 779 mmHg 88%
    06:00 +1°C° 0 mm 2 m/s 779 mmHg 89%
    07:00 +1°C° 0 mm 2 m/s 780 mmHg 89%
    08:00 +1°C° 0 mm 2 m/s 781 mmHg 89%
    09:00 +1°C° 0 mm 2 m/s 781 mmHg 90%
    10:00 +3°C° 0 mm 2 m/s 782 mmHg 84%
    11:00 +4°C° 0 mm 2 m/s 782 mmHg 78%
    12:00 +6°C° 0 mm 2 m/s 783 mmHg 72%
    13:00 +7°C° 0 mm 1 m/s 783 mmHg 73%
    14:00 +7°C° 0 mm 1 m/s 783 mmHg 74%
    15:00 +7°C° 0 mm 1 m/s 783 mmHg 75%
    16:00 +6°C° 0 mm 1 m/s 783 mmHg 78%
    17:00 +4°C° 0 mm 1 m/s 783 mmHg 81%
    18:00 +3°C° 0 mm 1 m/s 783 mmHg 84%
    19:00 +2°C° 0 mm 1 m/s 784 mmHg 83%
    20:00 +2°C° 0 mm 1 m/s 784 mmHg 82%
    21:00 +2°C° 0 mm 1 m/s 784 mmHg 81%
    22:00 +2°C° 0 mm 1 m/s 785 mmHg 80%
    23:00 +1°C° 0 mm 0 m/s 785 mmHg 79%

    Après-demain, 20 Janvier, Lundi

    Heure Température Précipitation Vent Pression Humidité
    00:00 +1°C° 0 mm 0 m/s 785 mmHg 78%
    01:00 +1°C° 0 mm 0 m/s 785 mmHg 76%
    02:00 +2°C° 0 mm 1 m/s 784 mmHg 75%
    03:00 +2°C° 0 mm 1 m/s 784 mmHg 74%
    04:00 +2°C° 0 mm 1 m/s 784 mmHg 73%
    05:00 +2°C° 0 mm 1 m/s 784 mmHg 73%
    06:00 +2°C° 0 mm 1 m/s 784 mmHg 73%
    07:00 +2°C° 0 mm 1 m/s 784 mmHg 73%
    08:00 +3°C° 0 mm 1 m/s 784 mmHg 73%
    09:00 +3°C° 0 mm 1 m/s 784 mmHg 73%
    10:00 +4°C° 0 mm 1 m/s 784 mmHg 69%
    11:00 +6°C° 0 mm 1 m/s 784 mmHg 65%
    12:00 +7°C° 0 mm 1 m/s 783 mmHg 61%
    13:00 +7°C° 0 mm 1 m/s 783 mmHg 64%
    14:00 +7°C° 0 mm 1 m/s 783 mmHg 66%
    15:00 +8°C° 0 mm 1 m/s 783 mmHg 68%
    16:00 +6°C° 0 mm 1 m/s 782 mmHg 71%
    17:00 +5°C° 0 mm 1 m/s 782 mmHg 73%
    18:00 +3°C° 0 mm 1 m/s 782 mmHg 76%
    19:00 +3°C° 0 mm 1 m/s 782 mmHg 76%
    20:00 +3°C° 0 mm 1 m/s 782 mmHg 76%
    21:00 +2°C° 0 mm 1 m/s 782 mmHg 76%
    22:00 +2°C° 0 mm 1 m/s 782 mmHg 76%
    23:00 +2°C° 0 mm 1 m/s 782 mmHg 76%

    21 Janvier, Mardi

    Heure Température Précipitation Vent Pression Humidité
    00:00 +2°C° 0 mm 1 m/s 782 mmHg 76%
    01:00 +2°C° 0 mm 1 m/s 782 mmHg 75%
    02:00 +1°C° 0 mm 0 m/s 781 mmHg 74%
    03:00 0°C° 0 mm 0 m/s 781 mmHg 73%
    04:00 0°C° 0 mm 0 m/s 781 mmHg 71%
    05:00 0°C° 0 mm 0 m/s 781 mmHg 70%
    06:00 0°C° 0 mm 0 m/s 781 mmHg 68%
    07:00 +1°C° 0 mm 0 m/s 781 mmHg 67%
    08:00 +1°C° 0 mm 0 m/s 781 mmHg 65%
    09:00 +1°C° 0 mm 0 m/s 781 mmHg 63%
    10:00 +4°C° 0 mm 1 m/s 781 mmHg 60%
    11:00 +6°C° 0 mm 1 m/s 780 mmHg 56%
    12:00 +7°C° 0 mm 1 m/s 780 mmHg 53%
    13:00 +7°C° 0 mm 1 m/s 780 mmHg 58%
    14:00 +6°C° 0 mm 2 m/s 780 mmHg 63%
    15:00 +6°C° 0 mm 2 m/s 779 mmHg 67%
    16:00 +4°C° 0 mm 2 m/s 779 mmHg 72%
    17:00 +3°C° 0 mm 2 m/s 779 mmHg 77%
    18:00 +1°C° 0 mm 2 m/s 778 mmHg 82%
    19:00 +1°C° 0 mm 2 m/s 778 mmHg 84%
    20:00 +1°C° 0 mm 2 m/s 778 mmHg 87%
    21:00 +1°C° 0 mm 2 m/s 779 mmHg 90%
    22:00 +1°C° 0 mm 2 m/s 778 mmHg 91%
    23:00 +1°C° 0 mm 2 m/s 778 mmHg 93%

    22 Janvier, Mercredi

    Heure Température Précipitation Vent Pression Humidité
    00:00 +1°C° 0 mm 2 m/s 778 mmHg 94%
    01:00 +1°C° 0 mm 2 m/s 778 mmHg 95%
    02:00 -1°C° 0 mm 3 m/s 777 mmHg 96%
    03:00 -1°C° 0 mm 3 m/s 777 mmHg 97%
    04:00 -1°C° 0 mm 3 m/s 777 mmHg 97%
    05:00 -1°C° 0 mm 3 m/s 777 mmHg 97%
    06:00 -1°C° 0 mm 3 m/s 776 mmHg 97%
    07:00 -1°C° 0 mm 4 m/s 776 mmHg 97%
    08:00 -1°C° 0 mm 4 m/s 776 mmHg 96%
    09:00 0°C° 0 mm 4 m/s 776 mmHg 96%
    10:00 +1°C° 0 mm 4 m/s 776 mmHg 94%
    11:00 +1°C° 0 mm 4 m/s 776 mmHg 91%
    12:00 +3°C° 0 mm 4 m/s 776 mmHg 88%
    13:00 +3°C° 0 mm 5 m/s 776 mmHg 88%
    14:00 +3°C° 0 mm 5 m/s 775 mmHg 87%
    15:00 +3°C° 0 mm 6 m/s 775 mmHg 87%
    16:00 +3°C° 0 mm 6 m/s 775 mmHg 90%
    17:00 +3°C° 0 mm 6 m/s 774 mmHg 93%
    18:00 +3°C° 0 mm 6 m/s 774 mmHg 96%
    19:00 +2°C° 0 mm 6 m/s 774 mmHg 96%
    20:00 +2°C° 0 mm 5 m/s 774 mmHg 95%
    21:00 +2°C° 0 mm 5 m/s 774 mmHg 95%
    22:00 +2°C° 0 mm 5 m/s 774 mmHg 96%
    23:00 +2°C° 0 mm 5 m/s 774 mmHg 96%

    23 Janvier, Jeudi

    Heure Température Précipitation Vent Pression Humidité
    00:00 +1°C° 0 mm 5 m/s 774 mmHg 97%
    01:00 +2°C° 0 mm 5 m/s 774 mmHg 97%
    02:00 +3°C° 0 mm 4 m/s 773 mmHg 97%
    03:00 +3°C° 0 mm 4 m/s 773 mmHg 97%
    04:00 +3°C° 0 mm 4 m/s 773 mmHg 97%
    05:00 +3°C° 0 mm 4 m/s 772 mmHg 97%
    06:00 +3°C° 0 mm 4 m/s 772 mmHg 96%
    07:00 +3°C° 0 mm 4 m/s 772 mmHg 96%
    08:00 +1°C° 0 mm 4 m/s 772 mmHg 96%
    09:00 +1°C° 0 mm 5 m/s 771 mmHg 95%
    10:00 +2°C° 0 mm 5 m/s 771 mmHg 91%
    11:00 +3°C° 0 mm 6 m/s 771 mmHg 88%
    12:00 +3°C° 0 mm 6 m/s 771 mmHg 84%
    13:00 +3°C° 0 mm 6 m/s 770 mmHg 83%
    14:00 +3°C° 0 mm 6 m/s 770 mmHg 82%
    15:00 +3°C° 0 mm 6 m/s 769 mmHg 81%
    16:00 +2°C° 0 mm 6 m/s 769 mmHg 83%
    17:00 +1°C° 0 mm 5 m/s 769 mmHg 86%
    18:00 +1°C° 0 mm 5 m/s 769 mmHg 88%
    19:00 0°C° 0 mm 5 m/s 769 mmHg 90%
    20:00 0°C° 0 mm 4 m/s 769 mmHg 91%
    21:00 0°C° 0 mm 4 m/s 768 mmHg 93%
    22:00 -1°C° 0 mm 4 m/s 768 mmHg 93%
    23:00 0°C° 0 mm 3 m/s 768 mmHg 94%
    Voir plus